Temp
6 6 6 5 4 3 3 3 2 2 1 -1 -1 -2 -2 -2 -2 -3 -3 -3 -3 -4 -4 -4 -4 -4 -4 -4 -4 -4 -4 -5 -4 -4 -3 -3 -3 -2 -3 -2 -2 -4 -3
6 5 5 4 3 3 3 2 2 2 0 -1 -2 -2 -2 -2 -3 -3 -3 -3 -3 -4 -4 -4 -4 -4 -4 -4 -4 -4 -4 -4 -4 -4 -4 -4 -3 -3 -3 -2 -2 -2 -3
6 5 4 4 3 3 2 2 1 1 -0 -1 -2 -2 -2 -3 -3 -3 -4 -4 -4 -4 -5 -5 -5 -6 -5 -5 -5 -5 -5 -5 -5 -5 -5 -4 -4 -4 -4 -3 -3 -3 -2
5 4 4 3 1 1 1 1 -1 -0 -1 -2 -2 -2 -3 -3 -4 -4 -4 -4 -5 -5 -6 -6 -6 -7 -7 -7 -7 -6 -6 -6 -5 -6 -5 -5 -5 -5 -5 -5 -4 -4 -3
5 4 4 3 2 0 -0 1 -1 -1 -2 -2 -2 -3 -3 -4 -4 -4 -4 -5 -5 -6 -7 -7 -7 -8 -8 -8 -8 -7 -7 -7 -7 -7 -7 -7 -7 -7 -6 -5 -6 -6 -4
3 3 3 2 1 0 -0 -2 -3 -2 -2 -3 -3 -3 -4 -4 -4 -5 -5 -6 -7 -7 -8 -9 -9 -10 -9 -9 -9 -8 -8 -8 -7 -7 -8 -8 -8 -8 -8 -7 -7 -7 -6
3 2 2 1 1 -0 -1 -2 -3 -4 -3 -3 -3 -4 -4 -5 -5 -6 -7 -8 -8 -9 -9 -9 -10 -10 -10 -10 -10 -9 -9 -9 -9 -8 -8 -8 -8 -8 -8 -8 -8 -8 -8
2 1 1 0 -1 -1 -1 -3 -3 -4 -4 -3 -4 -4 -5 -5 -6 -7 -8 -9 -9 -9 -10 -10 -10 -10 -10 -10 -10 -10 -9 -9 -9 -9 -9 -9 -9 -8 -9 -8 -8 -8 -8
1 0 -0 -1 -2 -3 -3 -2 -3 -5 -4 -4 -4 -5 -5 -6 -7 -8 -9 -9 -10 -10 -10 -11 -11 -11 -11 -10 -10 -10 -9 -9 -9 -9 -9 -9 -9 -9 -9 -9 -9 -9 -8
-0 -1 -2 -2 -3 -4 -4 -4 -4 -4 -4 -4 -5 -5 -7 -7 -8 -9 -10 -10 -11 -11 -11 -11 -11 -11 -11 -10 -10 -11 -10 -9 -9 -9 -9 -9 -9 -9 -9 -9 -9 -9 -9
-1 -1 -3 -4 -4 -4 -4 -4 -5 -5 -4 -5 -5 -6 -7 -8 -10 -10 -11 -12 -12 -12 -12 -12 -12 -12 -11 -11 -11 -11 -11 -11 -11 -11 -10 -10 -9 -9 -9 -8 -8 -9 -9
-2 -3 -4 -4 -4 -4 -5 -5 -4 -5 -5 -5 -6 -7 -8 -9 -10 -11 -12 -12 -13 -13 -12 -12 -12 -11 -11 -11 -11 -10 -10 -10 -10 -10 -10 -9 -9 -9 -8 -8 -8 -8 -8
-3 -4 -4 -5 -5 -5 -4 -5 -5 -5 -6 -6 -7 -8 -9 -10 -10 -11 -13 -13 -13 -13 -12 -12 -12 -12 -12 -11 -11 -11 -11 -10 -10 -10 -10 -10 -9 -9 -8 -8 -8 -7 -7
-4 -4 -5 -5 -5 -5 -5 -5 -6 -6 -6 -7 -8 -9 -10 -10 -11 -12 -13 -13 -13 -13 -12 -12 -12 -12 -12 -12 -12 -11 -11 -11 -11 -11 -10 -10 -9 -9 -8 -8 -7 -7 -7
-4 -5 -5 -5 -6 -6 -7 -7 -7 -7 -8 -8 -9 -9 -10 -10 -11 -13 -13 -13 -13 -13 -13 -13 -13 -13 -13 -13 -13 -12 -12 -12 -11 -11 -11 -10 -10 -9 -8 -8 -7 -8 -8
-5 -5 -5 -6 -7 -7 -8 -8 -8 -8 -9 -9 -9 -10 -10 -10 -12 -13 -13 -14 -13 -13 -13 -14 -14 -14 -14 -14 -13 -13 -13 -13 -12 -12 -11 -11 -10 -9 -9 -8 -8 -7 -7
-6 -6 -7 -8 -8 -8 -8 -9 -9 -9 -9 -9 -9 -10 -10 -11 -12 -13 -13 -14 -14 -14 -14 -14 -14 -14 -14 -14 -14 -14 -13 -13 -13 -12 -12 -11 -11 -10 -10 -9 -9 -8 -7
-6 -7 -7 -8 -9 -9 -9 -9 -9 -9 -9 -9 -10 -10 -10 -11 -11 -12 -13 -13 -13 -14 -14 -15 -15 -15 -15 -15 -14 -14 -14 -14 -13 -13 -12 -11 -11 -11 -10 -10 -10 -9 -9
-7 -7 -7 -8 -9 -9 -9 -9 -10 -10 -10 -10 -10 -10 -11 -11 -11 -12 -13 -14 -14 -14 -14 -14 -15 -15 -15 -15 -15 -14 -14 -14 -14 -13 -12 -12 -12 -11 -11 -11 -10 -10 -10
-7 -8 -8 -8 -9 -9 -9 -9 -10 -10 -10 -10 -10 -10 -11 -11 -12 -12 -13 -13 -14 -14 -13 -14 -14 -14 -14 -14 -14 -14 -14 -13 -13 -13 -13 -13 -12 -12 -12 -12 -11 -11 -11
-8 -8 -8 -9 -9 -9 -9 -9 -10 -10 -10 -10 -10 -10 -11 -11 -12 -12 -13 -13 -14 -14 -14 -13 -13 -13 -13 -13 -13 -13 -13 -13 -13 -13 -14 -13 -13 -13 -13 -12 -12 -12 -12
-8 -9 -9 -10 -9 -9 -9 -9 -9 -10 -9 -10 -10 -10 -11 -11 -11 -12 -12 -13 -14 -14 -13 -14 -13 -13 -13 -13 -13 -13 -13 -13 -13 -13 -14 -14 -13 -13 -13 -13 -13 -13 -13
-7 -8 -10 -10 -10 -9 -9 -9 -9 -9 -9 -10 -10 -10 -10 -11 -11 -12 -12 -13 -13 -14 -13 -13 -13 -13 -13 -13 -13 -13 -13 -14 -14 -14 -14 -14 -13 -13 -14 -14 -14 -13 -13
-8 -8 -9 -9 -10 -9 -9 -9 -9 -9 -10 -10 -10 -10 -10 -11 -11 -12 -12 -13 -13 -13 -13 -13 -13 -13 -13 -13 -13 -13 -14 -14 -14 -14 -14 -14 -13 -13 -13 -13 -14 -14 -13
-8 -8 -8 -9 -9 -9 -9 -9 -9 -9 -9 -10 -10 -10 -10 -11 -11 -12 -12 -13 -13 -13 -13 -13 -13 -14 -14 -13 -14 -14 -14 -14 -14 -14 -14 -14 -14 -14 -14 -14 -13 -13 -13
-8 -8 -8 -9 -9 -9 -9 -9 -9 -9 -10 -10 -10 -11 -11 -11 -11 -12 -12 -12 -13 -13 -13 -13 -13 -14 -14 -14 -14 -14 -14 -14 -14 -14 -14 -14 -14 -14 -14 -14 -14 -14 -14
Height
1539 1536 1534 1531 1528 1523 1520 1518 1516 1514 1511 1508 1507 1504 1501 1498 1495 1492 1488 1485 1482 1480 1478 1475 1471 1469 1467 1465 1463 1461 1459 1458 1453 1450 1451 1450 1449 1449 1448 1447 1445 1444 1439
1536 1533 1530 1527 1524 1519 1515 1512 1509 1508 1505 1503 1501 1499 1496 1494 1491 1488 1485 1481 1479 1477 1474 1470 1467 1465 1463 1461 1459 1457 1454 1453 1450 1445 1444 1444 1444 1444 1443 1443 1443 1443 1444
1532 1529 1526 1524 1520 1515 1511 1507 1503 1502 1500 1497 1494 1493 1491 1489 1486 1484 1481 1478 1475 1472 1468 1464 1461 1459 1456 1454 1452 1449 1447 1446 1444 1441 1438 1438 1438 1437 1436 1436 1437 1436 1436
1528 1524 1520 1516 1514 1510 1506 1500 1500 1496 1495 1494 1489 1488 1486 1484 1481 1479 1476 1473 1469 1465 1461 1458 1455 1452 1449 1447 1444 1442 1440 1438 1437 1435 1433 1432 1432 1432 1431 1430 1429 1430 1429
1524 1521 1515 1511 1507 1502 1501 1495 1492 1488 1487 1487 1484 1482 1481 1479 1476 1474 1470 1466 1462 1457 1454 1450 1447 1444 1442 1441 1438 1433 1432 1430 1429 1428 1427 1426 1425 1425 1426 1425 1424 1424 1425
1520 1515 1510 1507 1505 1501 1494 1492 1487 1486 1483 1484 1481 1478 1476 1474 1471 1468 1464 1460 1455 1450 1446 1442 1438 1435 1434 1431 1429 1427 1426 1423 1422 1421 1420 1420 1420 1420 1419 1418 1417 1417 1417
1515 1510 1507 1503 1499 1494 1490 1486 1483 1481 1480 1479 1478 1475 1473 1470 1467 1462 1457 1452 1448 1445 1441 1437 1432 1429 1426 1424 1421 1420 1418 1418 1417 1415 1414 1414 1414 1414 1414 1412 1412 1411 1410
1510 1506 1502 1498 1494 1490 1485 1482 1475 1476 1476 1475 1473 1472 1470 1467 1462 1456 1451 1447 1443 1440 1436 1432 1427 1423 1421 1417 1414 1412 1411 1410 1409 1408 1407 1406 1407 1407 1407 1407 1407 1406 1406
1506 1502 1497 1493 1488 1483 1479 1475 1474 1474 1474 1471 1471 1469 1465 1460 1455 1450 1446 1441 1437 1434 1430 1426 1421 1417 1415 1412 1409 1406 1404 1402 1402 1402 1401 1400 1400 1400 1401 1400 1399 1400 1397
1502 1498 1494 1489 1484 1480 1476 1475 1474 1473 1471 1469 1467 1464 1459 1455 1450 1446 1441 1436 1432 1428 1424 1419 1416 1413 1410 1407 1404 1401 1398 1397 1395 1394 1394 1392 1392 1391 1392 1392 1391 1391 1391
1498 1494 1489 1485 1481 1478 1476 1474 1473 1470 1468 1466 1463 1460 1456 1451 1447 1442 1437 1432 1428 1423 1418 1414 1410 1407 1404 1402 1399 1396 1393 1390 1388 1387 1385 1384 1384 1384 1384 1384 1384 1383 1383
1493 1488 1485 1482 1479 1476 1474 1472 1470 1468 1466 1463 1460 1456 1452 1448 1444 1438 1434 1429 1425 1420 1415 1410 1407 1403 1400 1397 1394 1391 1389 1387 1385 1383 1382 1381 1380 1380 1379 1379 1377 1377 1377
1487 1484 1481 1478 1476 1474 1472 1470 1468 1465 1462 1459 1456 1452 1449 1445 1440 1435 1429 1425 1421 1417 1413 1409 1406 1402 1398 1395 1392 1389 1387 1385 1383 1381 1380 1379 1378 1377 1376 1375 1374 1373 1373
1484 1480 1477 1475 1473 1472 1470 1467 1465 1462 1459 1456 1453 1450 1446 1442 1437 1431 1426 1422 1419 1415 1412 1408 1405 1401 1397 1394 1390 1388 1386 1384 1382 1380 1378 1377 1375 1374 1373 1372 1370 1369 1369
1479 1476 1473 1471 1469 1468 1466 1464 1462 1460 1457 1454 1451 1448 1444 1440 1435 1432 1427 1422 1418 1415 1411 1408 1404 1400 1396 1393 1391 1388 1386 1383 1381 1379 1377 1375 1373 1372 1371 1370 1369 1368 1367
1475 1472 1470 1467 1466 1465 1463 1462 1460 1457 1455 1452 1449 1446 1443 1438 1434 1431 1426 1422 1418 1414 1410 1407 1404 1401 1398 1395 1392 1390 1387 1384 1382 1379 1377 1375 1373 1372 1370 1370 1368 1367 1366
1471 1469 1466 1464 1463 1462 1460 1458 1455 1454 1453 1450 1447 1444 1441 1437 1433 1429 1425 1421 1416 1413 1410 1407 1404 1401 1398 1396 1393 1390 1387 1385 1382 1379 1377 1375 1373 1372 1370 1369 1368 1367 1366
1467 1465 1463 1461 1460 1459 1457 1456 1454 1452 1449 1448 1445 1443 1440 1436 1433 1428 1424 1420 1416 1412 1409 1407 1404 1401 1398 1395 1393 1390 1387 1384 1382 1380 1378 1375 1373 1372 1371 1370 1368 1367 1366
1464 1462 1460 1459 1457 1455 1454 1453 1452 1450 1448 1446 1444 1441 1438 1436 1432 1427 1423 1419 1416 1412 1409 1406 1404 1401 1398 1395 1392 1390 1387 1384 1382 1380 1378 1376 1374 1373 1371 1370 1369 1367 1366
1460 1458 1457 1456 1454 1452 1451 1450 1448 1447 1445 1443 1441 1439 1436 1433 1429 1425 1422 1419 1416 1412 1409 1406 1403 1401 1398 1395 1392 1390 1387 1384 1381 1380 1378 1376 1375 1373 1371 1370 1368 1367 1365
1455 1454 1452 1451 1450 1449 1448 1447 1445 1444 1442 1440 1438 1436 1433 1430 1427 1424 1421 1418 1415 1412 1409 1406 1404 1401 1398 1395 1393 1390 1388 1385 1382 1380 1378 1376 1374 1373 1371 1370 1368 1367 1365
1451 1449 1447 1446 1445 1445 1444 1443 1442 1440 1438 1437 1435 1433 1430 1428 1425 1422 1420 1417 1414 1411 1408 1406 1403 1401 1398 1395 1393 1391 1388 1385 1383 1381 1378 1376 1374 1372 1371 1370 1368 1366 1364
1446 1444 1443 1442 1441 1441 1439 1439 1438 1436 1435 1433 1431 1429 1427 1425 1422 1420 1417 1415 1412 1410 1407 1405 1402 1400 1398 1396 1393 1391 1388 1385 1383 1380 1378 1376 1374 1372 1370 1369 1367 1365 1363
1443 1442 1440 1439 1438 1437 1435 1434 1433 1432 1431 1429 1427 1425 1423 1421 1419 1417 1415 1412 1410 1407 1405 1403 1401 1399 1397 1395 1393 1390 1388 1385 1383 1380 1378 1375 1374 1372 1370 1368 1366 1365 1363
1439 1438 1437 1435 1434 1432 1431 1430 1429 1428 1427 1425 1423 1421 1420 1418 1416 1414 1412 1409 1407 1405 1403 1401 1399 1397 1395 1393 1391 1389 1387 1385 1382 1379 1377 1375 1373 1371 1369 1367 1366 1364 1362
1434 1433 1431 1430 1429 1428 1427 1425 1424 1424 1422 1420 1419 1417 1415 1414 1412 1410 1408 1406 1404 1402 1400 1398 1396 1394 1392 1391 1388 1387 1385 1383 1381 1378 1376 1374 1372 1370 1368 1367 1365 1363 1362
Wind_Speed
14 19 26 25 23 22 24 26 29 31 34 21 21 22 22 24 23 23 23 23 23 20 16 15 17 20 23 24 23 21 18 20 25 27 22 20 18 15 13 16 18 17 12
24 26 27 28 23 24 26 29 32 29 27 18 19 24 25 24 23 22 22 24 23 19 17 21 27 32 28 22 21 23 24 25 27 29 26 24 23 20 18 16 15 14 12
28 30 26 26 29 28 29 31 28 25 24 19 20 23 24 24 24 25 25 24 23 26 31 34 33 30 30 29 26 26 27 25 24 26 28 30 32 30 29 29 26 25 27
32 24 25 31 28 30 30 23 25 26 21 18 18 20 24 24 24 23 24 28 32 34 33 33 34 33 28 26 26 26 27 30 30 31 33 34 34 33 34 23 24 18 22
26 31 35 31 30 26 29 42 26 19 14 16 17 20 22 23 25 28 31 33 36 38 36 36 36 29 22 20 22 22 22 22 24 27 27 27 25 23 23 22 21 20 17
27 31 30 31 24 30 33 19 15 15 11 16 19 19 21 24 26 28 30 35 36 35 32 34 31 26 22 22 22 21 20 21 23 24 24 26 27 24 24 25 32 31 29
27 28 28 34 35 28 25 26 12 9 11 15 19 18 19 23 26 29 34 31 28 28 30 31 30 25 23 24 26 26 26 25 24 23 21 23 25 24 23 21 20 21 24
28 29 32 33 31 32 30 22 10 13 11 15 15 17 23 24 28 30 26 26 28 27 27 28 29 26 23 23 22 23 24 22 21 20 21 24 23 24 23 23 23 24 25
24 27 31 35 40 35 25 20 22 9 12 11 17 22 27 27 27 24 26 28 27 29 27 29 26 25 21 21 22 21 22 22 21 20 19 21 23 22 21 22 27 27 31
24 29 31 34 25 26 15 15 11 9 14 20 22 25 26 27 24 23 25 24 23 26 32 33 25 20 20 18 23 23 25 25 25 25 27 29 28 29 29 28 29 30 30
30 34 35 24 22 12 12 10 11 15 17 19 21 25 25 26 25 27 28 25 26 30 31 27 22 21 21 19 20 21 19 15 17 19 17 13 9 9 11 13 16 19 22
33 33 25 22 17 16 15 12 9 12 16 20 24 27 26 24 25 25 25 26 22 22 25 21 18 19 16 17 14 13 14 13 13 12 11 10 11 11 11 12 11 15 17
32 25 24 15 13 10 11 8 13 17 20 23 25 25 25 26 27 28 24 21 20 21 19 16 13 18 16 11 10 11 10 8 8 8 9 10 9 9 8 9 9 11 13
27 25 15 11 11 12 13 16 18 19 20 22 21 22 24 26 28 29 27 23 21 21 15 14 16 15 11 14 13 9 11 11 9 9 7 7 8 7 6 7 8 3 7
24 23 15 15 16 16 16 12 15 19 20 18 19 19 24 25 28 23 23 23 20 19 15 15 16 16 15 16 15 13 13 13 10 9 9 9 8 7 5 10 3 6 3
24 21 18 16 10 10 13 13 14 15 13 16 17 20 23 23 27 24 20 19 14 18 16 14 16 17 17 16 15 15 16 16 11 10 9 10 9 9 8 8 8 7 5
22 21 18 14 10 12 14 15 16 13 12 13 17 19 23 23 28 24 19 20 15 14 15 14 15 16 17 15 14 13 15 15 11 10 10 10 9 8 8 8 7 7 8
20 16 17 19 12 13 13 12 12 15 16 15 16 18 21 22 27 21 17 19 19 16 15 13 14 16 16 15 14 12 12 12 12 10 10 11 11 10 9 8 8 7 7
13 14 14 13 14 11 11 12 14 13 13 15 14 18 20 21 24 18 17 19 21 20 17 13 12 15 15 14 13 11 12 12 11 7 9 9 10 12 11 9 7 6 6
11 14 14 14 15 12 12 14 14 13 15 14 15 17 20 21 22 22 21 19 20 17 16 15 13 14 15 14 14 13 13 14 12 7 7 8 7 10 10 10 9 8 8
14 17 19 17 14 12 12 14 13 17 13 14 16 18 20 20 21 20 23 21 20 17 15 14 15 14 13 13 13 13 14 14 13 10 7 7 6 6 7 7 7 7 8
18 20 20 11 12 13 13 14 17 15 14 15 15 18 17 18 20 20 22 20 20 18 15 13 14 14 14 14 14 13 14 14 13 11 9 8 7 4 6 5 6 8 7
13 12 12 12 13 13 13 13 14 15 15 16 15 16 17 17 19 19 21 19 18 18 17 13 13 13 12 12 13 14 15 14 14 14 11 10 10 7 6 7 5 8 8
12 14 12 13 13 12 11 12 14 15 16 17 15 14 17 17 19 19 20 19 19 18 17 14 13 13 13 12 11 12 13 14 13 13 12 11 10 9 7 7 4 8 9
16 17 17 15 16 15 15 15 15 15 16 19 15 15 16 17 18 18 19 18 19 18 14 16 14 12 13 12 11 11 12 13 13 12 11 10 9 8 8 7 7 7 8
20 21 22 19 18 18 16 16 16 17 18 17 16 16 17 18 16 17 18 17 18 18 16 17 14 13 14 13 11 11 11 12 12 12 11 10 9 8 7 8 7 7 8
Wind_Direction
307 309 310 304 309 303 299 297 300 307 321 319 326 327 320 319 323 325 326 327 321 315 309 312 320 322 319 311 309 307 304 297 293 302 305 306 298 307 313 310 313 322 279
320 310 302 307 302 295 290 293 297 309 320 307 310 312 317 318 321 322 320 314 310 302 298 298 305 310 294 295 300 297 295 291 285 289 292 291 290 285 285 282 283 289 287
319 308 309 304 309 297 295 294 293 310 307 299 306 311 313 315 317 315 312 304 303 306 308 308 310 309 299 292 293 291 290 287 285 285 289 290 286 287 290 287 287 283 274
319 309 306 302 299 293 287 282 292 310 292 299 306 309 312 312 311 310 305 303 307 309 310 310 310 310 303 292 294 292 289 289 284 283 286 290 287 284 287 289 289 285 276
323 321 321 317 299 286 280 290 274 288 287 287 298 312 310 308 304 303 302 303 308 309 310 312 311 307 295 295 301 294 284 282 283 287 290 292 293 292 276 270 281 281 258
334 341 337 322 316 311 308 281 283 274 289 301 316 318 311 307 303 303 307 310 311 311 319 321 318 306 297 284 294 295 289 288 280 275 278 281 286 295 294 281 276 283 287
338 336 329 327 333 330 303 286 287 294 300 320 320 313 308 308 309 313 314 316 316 317 319 323 326 319 308 301 293 292 291 288 286 284 280 276 285 292 291 286 283 280 283
334 323 322 329 327 328 324 295 256 273 324 324 311 310 313 310 314 320 319 317 318 315 318 318 319 315 314 311 305 296 291 288 286 282 282 285 284 284 281 282 281 281 278
322 321 324 325 327 330 322 303 311 346 312 319 309 313 319 326 330 321 319 319 317 318 317 320 319 312 314 309 312 304 299 292 286 281 272 273 277 276 276 281 278 279 277
320 323 328 330 330 333 349 359 358 331 321 321 320 322 329 330 326 324 325 323 319 321 322 325 320 316 316 311 317 310 302 296 290 282 277 277 275 274 272 268 269 266 268
318 324 328 333 340 346 336 333 334 316 316 318 321 329 334 334 328 322 320 320 323 322 321 324 324 318 315 312 309 302 305 312 304 296 295 292 286 278 275 273 269 261 261
321 327 331 333 345 336 338 339 320 309 317 322 325 329 338 341 337 333 323 319 327 327 332 337 343 344 330 320 324 319 308 307 313 324 326 327 322 311 300 295 309 277 270
327 326 329 326 331 336 323 315 320 321 321 324 329 334 341 344 344 344 346 345 347 345 348 352 348 335 339 354 348 357 1 358 353 342 330 322 323 322 312 299 286 282 279
327 324 320 320 319 312 308 313 312 313 323 329 335 341 344 345 347 354 348 349 353 352 354 351 345 352 10 15 0 1 8 360 346 338 340 340 334 328 332 319 339 316 295
313 323 313 309 305 308 313 311 314 318 326 334 339 343 344 346 354 351 345 349 350 341 347 347 357 7 10 11 15 27 22 12 17 17 0 349 346 4 8 27 17 350 311
308 319 324 321 321 326 317 311 310 323 338 341 342 343 344 346 354 344 345 349 351 340 350 360 3 7 10 9 11 23 30 14 17 20 17 8 12 23 15 14 18 22 21
319 319 328 329 317 321 313 315 326 341 340 340 338 339 341 345 346 341 348 347 351 343 1 4 4 3 3 5 8 15 22 18 14 22 28 31 28 26 19 9 9 12 37
308 315 324 325 296 304 307 322 326 329 333 341 337 334 338 342 338 339 345 346 359 1 0 359 0 356 357 358 1 4 3 5 16 26 34 40 45 34 17 13 12 10 16
292 299 305 307 311 303 310 314 317 324 325 326 329 326 337 335 339 343 349 352 352 355 1 358 352 351 354 355 356 357 353 357 2 15 31 37 45 42 33 19 14 6 351
288 289 289 299 306 303 300 303 317 318 317 323 325 327 330 333 338 349 349 347 348 351 1 1 355 358 360 360 3 5 9 11 14 18 24 25 35 40 37 27 17 11 1
280 279 283 289 297 299 298 306 306 312 319 322 325 325 328 331 336 343 342 339 339 346 353 359 357 359 3 4 5 10 13 15 16 18 11 10 6 29 21 25 11 357 354
292 277 282 288 283 284 289 297 307 315 314 317 314 322 324 329 330 335 335 334 337 341 345 349 354 354 355 358 1 4 6 7 9 12 9 6 2 14 354 342 4 355 348
314 314 299 294 301 295 282 286 297 308 308 312 313 318 325 325 327 325 328 330 333 335 338 342 343 347 349 352 351 353 357 360 0 359 359 359 358 9 352 348 338 337 358
314 323 317 299 305 296 290 289 293 299 306 310 306 312 315 317 320 322 325 325 329 329 331 339 335 337 337 342 345 344 350 351 352 351 349 351 352 0 350 352 320 325 344
290 298 304 300 296 290 288 287 289 291 292 304 299 302 306 310 314 318 324 327 327 328 327 332 334 333 331 339 341 344 348 347 345 348 347 346 346 352 349 354 343 342 348
287 287 294 289 286 288 285 282 284 288 291 296 297 290 291 297 302 308 315 317 321 325 324 326 326 329 328 331 329 337 340 341 345 346 347 346 343 346 345 347 352 348 348